This demonstration page uses our WeatherBlox Daily Observations layout. Learn more.

Left ArrowRight Arrow

36.17497, -115.13722

Hourly Observations for January 31, 2017

Temp ( °F °C ) Dew Point ( °F °C ) Humidity (%) Winds ( mph kmh ) Pressure ( in mb ) Visibility ( mi km ) Precip ( " mm )
12:53 am 00:53 Clear 43 6.1 32 0 65 65 Calm 30.23 1024 10 16.0934 0 0
1:53 am 01:53 Clear 42 5.6 31 -0.6 65 65 WNW 6 9 30.23 1024 10 16.0934 0 0
2:53 am 02:53 Clear 42 5.6 30 -1.1 62 62 WNW 7 11 30.22 1024 10 16.0934 0 0
3:53 am 03:53 Clear 42 5.6 29 -1.7 60 60 Calm 30.22 1023 10 16.0934 0 0
4:53 am 04:53 Clear 41 5 30 -1.1 65 65 NW 6 9 30.22 1024 10 16.0934 0 0
5:53 am 05:53 Clear 40 4.4 30 -1.1 68 68 WNW 3 6 30.23 1024 10 16.0934 0 0
6:53 am 06:53 Sunny 40 4.4 30 -1.1 68 68 NW 3 6 30.25 1024 10 16.0934 0 0
7:53 am 07:53 Sunny 44 6.7 30 -1.1 58 58 Calm 30.26 1025 10 16.0934 0 0
8:53 am 08:53 Sunny 48 8.9 30 -1.1 50 50 Calm 30.27 1025 10 16.0934 0 0
9:53 am 09:53 Sunny 51 10.6 31 -0.6 46 46 Calm 30.27 1025 10 16.0934 0 0
10:53 am 10:53 Sunny 54 12.2 30 -1.1 40 40 Calm 30.25 1024 10 16.0934 0 0
11:53 am 11:53 Sunny 58 14.4 28 -2.2 32 32 Calm 30.22 1023 10 16.0934 0 0
12:53 pm 12:53 Sunny 58 14.4 28 -2.2 32 32 VRB 3 6 30.17 1022 10 16.0934 0 0
1:53 pm 13:53 Sunny 62 16.7 28 -2.2 28 28 VRB 3 6 30.14 1021 10 16.0934 0 0
2:53 pm 14:53 Sunny 62 16.7 27 -2.8 26 26 Calm 30.14 1021 10 16.0934 0 0
3:53 pm 15:53 Sunny 62 16.7 28 -2.2 28 28 ESE 3 6 30.13 1020 10 16.0934 0 0
4:53 pm 16:53 Sunny 61 16.1 28 -2.2 29 29 Calm 30.14 1021 10 16.0934 0 0
5:53 pm 17:53 Clear 58 14.4 30 -1.1 35 35 E 5 7 30.14 1021 10 16.0934 0 0
6:53 pm 18:53 Clear 55 12.8 31 -0.6 40 40 Calm 30.15 1021 10 16.0934 0 0
7:53 pm 19:53 Clear 51 10.6 32 0 48 48 WNW 5 7 30.16 1022 10 16.0934 0 0
8:53 pm 20:53 Clear 49 9.4 33 0.6 55 55 WNW 6 9 30.16 1022 10 16.0934 0 0
9:53 pm 21:53 Clear 47 8.3 33 0.6 59 59 NNW 3 6 30.17 1022 10 16.0934 0 0
10:53 pm 22:53 Clear 46 7.8 33 0.6 61 61 NW 6 9 30.16 1021 10 16.0934 0 0
11:53 pm 23:53 Clear 44 6.7 33 0.6 65 65 NW 7 11 30.16 1021 10 16.0934 0 0

Powered by AerisWeather